Hourly Data Report for October 05, 2014

All times are specified in Local Standard Time (LST). Add 1 hour to adjust for Daylight Saving Time where and when it is observed.

KUGAARUK CLIMATE
NUNAVUT

68°32'15.060" N
89°47'47.020" W
15.80 m
2303094
71407
NBB

Download Data

Hourly Data (October 2014)
Hourly Data Report for October 5, 2014
Temp Definition
°C
Dew Point Temp Definition
°C
Rel Hum Definition
%
Wind Dir Definition
10's deg

Wind Spd Definition
km/h
Visibility Definition
km
Stn Press Definition
kPa
Hmdx Definition


Wind Chill Definition


Weather Definition


TIME
00:00 -5.5 -7.9 83 5 14   101.94   -11 LegendNANA
01:00 -5.3 -7.9 82 7 16   101.96   -11 LegendNANA
02:00 -5.3 -7.8 82 6 16   101.97   -11 LegendNANA
03:00 -5.3 -7.9 82 6 19   101.98   -12 LegendNANA
04:00 -5.5 -7.7 85 7 18   102.05   -12 LegendNANA
05:00 -5.8 -7.7 87 8 19   102.07   -12 LegendNANA
06:00 -6.2 -8.1 86 8 25   102.10   -14 LegendNANA
07:00 -6.5 -8.8 84 6 23   102.10   -14 LegendNANA
08:00 -6.5 -8.5 85 7 23   102.12   -14 LegendNANA
09:00 -6.3 -8.5 84 7 23   102.12   -14 LegendNANA
10:00 -6.4 -8.6 85 6 25   102.10   -14 LegendNANA
11:00 -6.2 -8.6 83 7 23   102.16   -14 LegendNANA
12:00 -6.0 -8.0 86 6 22   102.17   -13 LegendNANA
13:00 -5.4 -7.5 85 5 26   102.13   -13 LegendNANA
14:00 -5.2 -7.1 87 6 29   102.15   -13 LegendNANA
15:00 -5.6 -7.2 88 6 27   102.17   -13 LegendNANA
16:00 -6.3 -8.1 87 6 31   102.14   -15 LegendNANA
17:00 -6.2 -7.8 89 6 29   102.18   -14 LegendNANA
18:00 -6.2 -7.6 89 7 29   102.17   -14 LegendNANA
19:00 -6.0 -7.5 89 6 26   102.12   -14 LegendNANA
20:00 -7.2 -8.7 89 5 22   102.11   -15 LegendNANA
21:00 -7.8 -9.3 89 6 23   102.06   -16 LegendNANA
22:00 -8.2 -9.7 89 6 22   102.05   -16 LegendNANA
23:00 -8.2 -9.8 88 5 25   102.01   -16 LegendNANA

Notes on Data Quality.

Legend

  • E = Estimated
  • M = Missing
  • NA = Not Available
  • ‡ = Partner data that is not subject to review by the National Climate Archives
Date modified: